sat.trackr.live / text

‹ back to catalog

STARLINK-37523

NORAD 69528 · 2026-133W

PAYLOAD ACTIVE UNKNOWN

§ Identity

Operator
Country
US
Launch date
2026-06-12
Launch site
AFETR
Launch vehicle
Mass (kg)
RCS (m²)

Purposes: comms

External: N2YO · Heavens-Above · Gunter

§ Orbital elements

Epoch: 2026-09-19T22:50:56.765760Z

Period
93.85 min
Inclination
53.1569°
Eccentricity
0.0002353
Mean motion
15.34410900 rev/d
Perigee alt
461.1 km
Apogee alt
464.3 km
Semi-major
6,840.8 km
B*
4.0475e-4
RAAN
232.0038°
Arg perigee
109.1625°
Mean anomaly
250.9633°
Rev number
1,668

§ Raw data

STARLINK-375231 69528U 26133W   26262.95204590  .00013328  00000+0  40475-3 0  99962 69528  53.1569 232.0038 0002353 109.1625 250.9633 15.34410900 16682

JSON: /api/v1/satellites/69528 · /tle

For live sub-satellite position, see the globe view (requires WebGL).

§ Visibility from observer

Set your observer location to see the next 7 days of passes ≥ 10°. The values pass through the URL so the page stays shareable.

No JS? Fill the form by hand. The geolocation button needs JavaScript.